Regional Weather Roundup
Issued by NWS

Home | Current Version | Previous Version | Graphics & Text | Print | Product List | Glossary On
Versions: 1 2 3 4 5 6 7 8 9 10 11 12 13 14 15 16 17 18 19 20 21 22 23 24 25 26 27 28 29 30 31 32 33 34 35 36 37 38 39 40 41 42 43 44 45 46 47 48 49 50
781
ASUS43 KLSX 291657
RWRMO

WEATHER SUMMARY FOR MISSOURI
NATIONAL WEATHER SERVICE SPRINGFIELD MO
1200 PM CDT FRI APR 29 2016

NOTE: "FAIR" INDICATES FEW OR NO CLOUDS BELOW 12,000 FEET WITH NO
       SIGNIFICANT WEATHER AND/OR OBSTRUCTIONS TO VISIBILITY.
       CURRENT SKY AND/OR WEATHER CONDITIONS ARE NOT AVAILABLE FOR
       CHILLICOTHE AND FARMINGTON.

MOZ001>031-035>038-043-044-053-054-291800-
...NORTHERN AND WESTERN MISSOURI...

CITY           SKY/WX    TMP DP  RH WIND       PRES   REMARKS
KANSAS CTY INT CLOUDY    54  45  71 NE14      30.02F
LEE`S SUMMIT   CLOUDY    55  46  71 E13       30.02F
ST JOSEPH      CLOUDY    52  44  74 NE13      30.02F
CHILLICOTHE      N/A     53  46  77 E9        30.07F

$$
MOZ066>068-077>081-088>096-101>105-291800-
...SOUTHWEST MISSOURI...

CITY           SKY/WX    TMP DP  RH WIND       PRES   REMARKS
SPRINGFIELD    CLOUDY    59  52  77 E16G26    29.90F
JOPLIN         MOSUNNY   64  54  69 E16G23    29.89R
BRANSON        CLOUDY    55  54  94 E12       29.92R

$$
MOZ032>034-039>042-045>050-055>058-069>072-291800-
...CENTRAL MISSOURI...

CITY           SKY/WX    TMP DP  RH WIND       PRES   REMARKS
COLUMBIA       NOT AVBL
JEFFERSON CITY CLOUDY    57  48  72 E9        30.04F
ROLLA          CLOUDY    54  49  83 E10       30.00F
SEDALIA        CLOUDY    59  50  72 E10       30.02F
WARRENSBURG    CLOUDY    57  46  67 NE13      30.02S

$$
MOZ051-052-059>065-291800-
...EAST CENTRAL MISSOURI...

CITY           SKY/WX    TMP DP  RH WIND       PRES   REMARKS
ST LOUIS INTL  CLOUDY    62  48  60 SE5       30.07S

$$
MOZ072>076-082>087-097>100-106>115-291800-
...SOUTH CENTRAL AND SOUTHEAST MISSOURI...

CITY           SKY/WX    TMP DP  RH WIND       PRES   REMARKS
CAPE GIRARDEAU CLOUDY    61  52  72 E9        30.02F
POPLAR BLUFF   LGT RAIN  58  54  86 N3        30.05R
WEST PLAINS    RAIN      53  50  89 NE7       30.03F FOG

$$



USA.gov is the U.S. government's official web portal to all federal, state and local government web resources and services.